Time,TemperatureF,DewpointF,PressureIn,WindDirection,WindDirectionDegrees,WindSpeedMPH,WindSpeedGustMPH,Humidity,HourlyPrecipIn,Conditions,Clouds,dailyrainin,SoftwareType,DateUTC
2013-10-07 00:03:00,69.3,61.7,-100.00,SSW,203,0.0,0.0,77,0.00,,,0.00,WSDL version 420,2013-10-07 04:03:00,
2013-10-07 00:05:00,69.3,61.7,-100.00,SSW,195,0.0,0.0,77,0.00,,,0.00,WSDL version 420,2013-10-07 04:05:00,
2013-10-07 00:12:00,69.3,62.1,-100.00,South,186,0.0,0.0,78,0.00,,,0.00,WSDL version 420,2013-10-07 04:12:00,
2013-10-07 00:17:00,69.3,62.1,29.00,SSW,203,0.0,0.0,78,-99.99,,,-99.99,WSDL version 420,2013-10-07 04:17:00,
2013-10-07 00:25:00,69.1,61.9,29.00,SSW,195,0.0,0.0,78,0.00,,,0.00,WSDL version 420,2013-10-07 04:25:00,
2013-10-07 00:27:00,69.1,61.9,29.00,SSE,165,0.0,0.0,78,0.00,,,0.00,WSDL version 420,2013-10-07 04:27:00,
2013-10-07 00:33:00,69.1,61.9,29.00,SSW,203,0.0,0.0,78,0.00,,,0.00,WSDL version 420,2013-10-07 04:33:00,
2013-10-07 00:41:00,69.4,62.3,-100.00,SSW,203,0.0,1.1,78,0.00,,,0.00,WSDL version 420,2013-10-07 04:41:00,
2013-10-07 00:49:00,69.4,62.3,-100.00,SSW,203,0.0,0.0,78,0.00,,,0.00,WSDL version 420,2013-10-07 04:49:00,
2013-10-07 00:55:00,69.4,62.3,29.00,South,169,0.0,0.0,78,-99.99,,,-99.99,WSDL version 420,2013-10-07 04:55:00,
2013-10-07 01:00:00,69.4,62.3,29.00,South,184,0.0,0.0,78,0.00,,,0.00,WSDL version 420,2013-10-07 05:00:00,
2013-10-07 01:06:00,69.3,62.2,-100.00,South,191,0.0,0.0,78,0.00,,,0.00,WSDL version 420,2013-10-07 05:06:00,
2013-10-07 01:11:00,69.4,62.3,-100.00,SSW,199,0.0,0.0,78,0.00,,,0.00,WSDL version 420,2013-10-07 05:11:00,
2013-10-07 01:17:00,69.4,62.3,29.00,SSE,158,0.0,0.0,78,0.00,,,0.00,WSDL version 420,2013-10-07 05:17:00,
2013-10-07 01:23:00,69.4,61.9,28.97,SW,231,0.0,0.0,77,0.00,,,0.00,WSDL version 420,2013-10-07 05:23:00,
2013-10-07 01:27:00,69.4,61.9,28.97,SW,231,0.0,0.0,77,0.00,,,0.00,WSDL version 420,2013-10-07 05:27:00,
2013-10-07 01:33:00,69.7,61.9,28.97,SW,216,0.0,0.0,76,0.00,,,0.00,WSDL version 420,2013-10-07 05:33:00,
2013-10-07 01:38:00,70.2,61.5,29.00,SSW,199,0.0,0.0,74,0.00,,,0.00,WSDL version 420,2013-10-07 05:38:00,
2013-10-07 01:47:00,70.7,61.2,-100.00,SSW,210,0.3,0.0,72,0.00,,,0.00,WSDL version 420,2013-10-07 05:47:00,
2013-10-07 01:55:00,70.9,61.0,28.97,SSE,161,0.0,0.0,71,0.00,,,0.00,WSDL version 420,2013-10-07 05:55:00,
2013-10-07 02:04:00,71.1,60.8,-100.00,SSW,199,0.0,0.0,70,0.00,,,0.00,WSDL version 420,2013-10-07 06:04:00,
2013-10-07 02:12:00,70.9,60.2,-100.00,SW,225,0.0,0.0,69,0.00,,,0.00,WSDL version 420,2013-10-07 06:12:00,
2013-10-07 02:19:00,70.9,60.2,-100.00,SSW,195,0.0,0.0,69,-99.99,,,-99.99,WSDL version 420,2013-10-07 06:19:00,
2013-10-07 02:25:00,71.1,60.4,28.97,NNW,338,0.0,0.0,69,0.00,,,0.00,WSDL version 420,2013-10-07 06:25:00,
2013-10-07 02:31:00,71.1,60.0,28.97,SW,214,0.0,2.5,68,0.00,,,0.00,WSDL version 420,2013-10-07 06:31:00,
2013-10-07 02:36:00,71.1,60.0,28.97,SW,234,0.0,2.5,68,-99.99,,,-99.99,WSDL version 420,2013-10-07 06:36:00,
2013-10-07 02:41:00,71.1,60.0,28.97,SSW,203,0.0,3.1,68,0.00,,,0.00,WSDL version 420,2013-10-07 06:41:00,
2013-10-07 02:49:00,71.1,60.0,28.97,SSW,197,0.0,0.0,68,-99.99,,,-99.99,WSDL version 420,2013-10-07 06:49:00,
2013-10-07 02:54:00,71.2,59.9,28.97,SSW,212,0.0,1.3,68,-99.99,,,-99.99,WSDL version 420,2013-10-07 06:54:00,
2013-10-07 03:03:00,71.1,60.0,28.97,SW,216,0.0,0.9,68,0.00,,,0.00,WSDL version 420,2013-10-07 07:03:00,
2013-10-07 03:18:00,71.1,59.6,28.94,WSW,255,0.0,0.9,67,0.00,,,0.00,WSDL version 420,2013-10-07 07:18:00,
2013-10-07 03:26:00,71.1,59.6,28.91,SW,216,0.0,0.0,67,0.00,,,0.00,WSDL version 420,2013-10-07 07:26:00,
2013-10-07 03:35:00,70.9,59.4,-100.00,SW,214,0.0,0.9,67,0.00,,,0.00,WSDL version 420,2013-10-07 07:35:00,
2013-10-07 03:43:00,70.7,59.6,-100.00,SW,221,0.0,0.0,68,0.00,,,0.00,WSDL version 420,2013-10-07 07:43:00,
2013-10-07 03:52:00,70.7,59.5,-100.00,SW,233,0.3,0.9,67,0.00,,,0.00,WSDL version 420,2013-10-07 07:52:00,
2013-10-07 04:01:00,70.9,59.4,-100.00,SW,236,0.0,0.9,67,-99.99,,,-99.99,WSDL version 420,2013-10-07 08:01:00,
2013-10-07 04:12:00,70.9,59.4,-100.00,SW,225,0.0,0.9,67,0.00,,,0.00,WSDL version 420,2013-10-07 08:12:00,
2013-10-07 04:20:00,70.9,59.4,28.91,SSW,203,0.0,1.1,67,0.00,,,0.00,WSDL version 420,2013-10-07 08:20:00,
2013-10-07 04:25:00,70.9,59.0,28.94,SSW,203,0.0,1.1,66,0.00,,,0.00,WSDL version 420,2013-10-07 08:25:00,
2013-10-07 04:32:00,70.9,59.0,28.94,SSW,203,0.0,0.0,66,-99.99,,,-99.99,WSDL version 420,2013-10-07 08:32:00,
2013-10-07 04:41:00,70.9,59.0,28.88,WSW,243,0.0,0.9,66,0.00,,,0.00,WSDL version 420,2013-10-07 08:41:00,
2013-10-07 04:49:00,70.9,59.0,28.88,South,173,0.0,0.0,66,-99.99,,,-99.99,WSDL version 420,2013-10-07 08:49:00,
2013-10-07 04:54:00,70.9,58.8,28.91,SSW,203,0.0,0.0,66,0.00,,,0.00,WSDL version 420,2013-10-07 08:54:00,
2013-10-07 05:02:00,70.7,58.8,28.91,SW,236,1.1,4.0,66,0.00,,,0.00,WSDL version 420,2013-10-07 09:02:00,
2013-10-07 05:10:00,70.9,59.0,28.91,SSW,198,0.0,4.0,66,0.00,,,0.00,WSDL version 420,2013-10-07 09:10:00,
2013-10-07 05:16:00,70.9,58.5,28.91,WSW,255,0.0,2.2,65,-99.99,,,-99.99,WSDL version 420,2013-10-07 09:16:00,
2013-10-07 05:24:00,70.9,58.5,-100.00,SW,234,0.0,1.3,65,0.00,,,0.00,WSDL version 420,2013-10-07 09:24:00,
2013-10-07 05:31:00,70.9,58.5,-100.00,SW,218,0.0,1.3,65,0.00,,,0.00,WSDL version 420,2013-10-07 09:31:00,
2013-10-07 05:42:00,70.9,58.5,28.91,SW,230,0.0,2.0,65,-99.99,,,-99.99,WSDL version 420,2013-10-07 09:42:00,
2013-10-07 05:49:00,70.9,58.5,28.91,SW,225,0.0,0.0,65,0.00,,,0.00,WSDL version 420,2013-10-07 09:49:00,
2013-10-07 05:55:00,70.9,58.5,28.91,SW,221,0.0,0.0,65,0.00,,,0.00,WSDL version 420,2013-10-07 09:55:00,
2013-10-07 06:04:00,70.7,58.4,28.91,SW,225,0.0,0.0,65,-99.99,,,-99.99,WSDL version 420,2013-10-07 10:04:00,
2013-10-07 06:10:00,70.7,58.4,-100.00,SW,221,0.0,0.0,65,0.00,,,0.00,WSDL version 420,2013-10-07 10:10:00,
2013-10-07 06:16:00,70.7,58.4,28.91,SW,233,0.0,1.1,65,0.00,,,0.00,WSDL version 420,2013-10-07 10:16:00,
2013-10-07 06:21:00,70.6,58.3,28.91,WSW,239,0.0,1.1,65,0.00,,,0.00,WSDL version 420,2013-10-07 10:21:00,
2013-10-07 06:28:00,70.5,58.2,28.91,SSW,208,0.0,0.0,65,-99.99,,,-99.99,WSDL version 420,2013-10-07 10:28:00,
2013-10-07 06:34:00,70.5,58.2,28.91,SW,218,0.0,0.0,65,0.00,,,0.00,WSDL version 420,2013-10-07 10:34:00,
2013-10-07 06:43:00,70.3,58.5,28.88,SW,233,0.0,0.9,66,0.00,,,0.00,WSDL version 420,2013-10-07 10:43:00,
2013-10-07 06:49:00,70.3,58.3,28.88,SSW,197,0.0,1.1,66,0.00,,,0.00,WSDL version 420,2013-10-07 10:49:00,
2013-10-07 06:56:00,70.3,58.0,28.88,SSW,203,0.0,0.0,65,0.00,,,0.00,WSDL version 420,2013-10-07 10:56:00,
2013-10-07 07:02:00,70.3,58.0,-100.00,SW,219,0.0,0.0,65,0.00,,,0.00,WSDL version 420,2013-10-07 11:02:00,
2013-10-07 07:08:00,70.3,58.3,28.88,SSW,212,0.0,0.0,66,-99.99,,,-99.99,WSDL version 420,2013-10-07 11:08:00,
2013-10-07 07:14:00,70.2,58.3,28.88,SSW,208,0.0,0.0,66,0.00,,,0.00,WSDL version 420,2013-10-07 11:14:00,
2013-10-07 07:21:00,70.2,58.3,-100.00,SSW,203,0.0,0.9,66,0.00,,,0.00,WSDL version 420,2013-10-07 11:21:00,
2013-10-07 07:27:00,70.2,58.3,28.88,SSW,203,0.0,0.0,66,0.00,,,0.00,WSDL version 420,2013-10-07 11:27:00,
2013-10-07 07:34:00,70.2,58.3,-100.00,SW,225,0.0,0.0,66,0.00,,,0.00,WSDL version 420,2013-10-07 11:34:00,
2013-10-07 07:40:00,70.3,58.5,28.88,SW,225,0.0,0.0,66,0.00,,,0.00,WSDL version 420,2013-10-07 11:40:00,
2013-10-07 07:48:00,70.5,58.6,-100.00,SSW,195,0.0,0.0,66,0.00,,,0.00,WSDL version 420,2013-10-07 11:48:00,
2013-10-07 07:54:00,70.6,58.7,-100.00,SSW,212,0.0,0.0,66,0.00,,,0.00,WSDL version 420,2013-10-07 11:54:00,
2013-10-07 08:00:00,70.7,58.4,-100.00,SW,214,0.0,0.0,65,0.00,,,0.00,WSDL version 420,2013-10-07 12:00:00,
2013-10-07 08:07:00,71.0,58.6,-100.00,South,188,0.0,2.5,65,0.00,,,0.00,WSDL version 420,2013-10-07 12:07:00,
2013-10-07 08:15:00,71.2,58.9,28.88,SSW,209,0.0,0.9,65,0.00,,,0.00,WSDL version 420,2013-10-07 12:15:00,
2013-10-07 08:25:00,71.6,58.8,28.85,South,171,0.0,0.0,64,0.00,,,0.00,WSDL version 420,2013-10-07 12:25:00,
2013-10-07 08:31:00,71.7,58.5,28.85,SSW,209,0.0,0.0,63,-99.99,,,-99.99,WSDL version 420,2013-10-07 12:31:00,
2013-10-07 08:37:00,72.1,58.7,28.85,SSW,197,0.0,0.0,63,0.00,,,0.00,WSDL version 420,2013-10-07 12:37:00,
2013-10-07 08:43:00,72.9,59.4,28.85,West,275,0.0,0.0,62,0.00,,,0.00,WSDL version 420,2013-10-07 12:43:00,
2013-10-07 08:49:00,73.3,59.5,-100.00,WSW,242,0.0,2.2,62,0.00,,,0.00,WSDL version 420,2013-10-07 12:49:00,
2013-10-07 08:55:00,73.8,59.5,28.85,South,180,0.0,2.2,61,0.00,,,0.00,WSDL version 420,2013-10-07 12:55:00,
2013-10-07 09:01:00,73.6,58.4,28.85,WSW,248,0.0,0.0,59,-99.99,,,-99.99,WSDL version 420,2013-10-07 13:01:00,
2013-10-07 09:07:00,73.6,58.4,28.85,SW,214,0.0,0.0,59,0.00,,,0.00,WSDL version 420,2013-10-07 13:07:00,
2013-10-07 09:14:00,73.3,58.4,-100.00,SE,140,0.0,1.6,60,0.00,,,0.00,WSDL version 420,2013-10-07 13:14:00,
2013-10-07 09:20:00,73.1,58.4,28.85,SW,221,0.0,0.0,60,-99.99,,,-99.99,WSDL version 420,2013-10-07 13:20:00,
2013-10-07 09:26:00,72.7,58.5,28.85,SW,236,0.0,1.6,61,0.00,,,0.00,WSDL version 420,2013-10-07 13:26:00,
2013-10-07 09:33:00,72.5,58.1,-100.00,WSW,248,0.0,0.0,61,0.00,,,0.00,WSDL version 420,2013-10-07 13:33:00,
2013-10-07 09:39:00,72.3,58.4,-100.00,NNW,332,1.9,5.8,61,0.00,,,0.00,WSDL version 420,2013-10-07 13:39:00,
2013-10-07 09:45:00,66.2,52.1,28.88,NW,324,4.4,10.3,62,-99.99,,,-99.99,WSDL version 420,2013-10-07 13:45:00,
2013-10-07 09:51:00,63.2,52.3,-100.00,North,351,2.9,10.3,69,0.08,,,0.08,WSDL version 420,2013-10-07 13:51:00,
2013-10-07 09:57:00,61.8,52.3,28.88,North,349,0.6,5.6,72,0.12,,,0.12,WSDL version 420,2013-10-07 13:57:00,
2013-10-07 10:03:00,60.9,52.7,28.88,WSW,243,0.7,3.4,75,0.17,,,0.17,WSDL version 420,2013-10-07 14:03:00,
2013-10-07 10:09:00,60.2,53.4,28.91,NW,321,0.0,3.1,79,0.21,,,0.21,WSDL version 420,2013-10-07 14:09:00,
2013-10-07 10:15:00,59.8,54.2,-100.00,NW,315,0.0,2.5,82,0.25,,,0.25,WSDL version 420,2013-10-07 14:15:00,
2013-10-07 10:21:00,59.4,54.2,-100.00,SSW,208,0.0,2.5,82,0.29,,,0.29,WSDL version 420,2013-10-07 14:21:00,
2013-10-07 10:27:00,59.2,54.5,28.91,SSW,212,0.0,0.0,86,0.33,,,0.33,WSDL version 420,2013-10-07 14:27:00,
2013-10-07 10:36:00,59.2,55.7,28.91,SSW,203,0.0,0.0,88,0.33,,,0.33,WSDL version 420,2013-10-07 14:36:00,
2013-10-07 10:42:00,59.1,56.0,28.91,SSW,203,0.0,0.0,90,0.37,,,0.37,WSDL version 420,2013-10-07 14:42:00,
2013-10-07 10:48:00,59.2,56.6,28.91,SSW,203,0.0,0.0,92,0.33,,,0.37,WSDL version 420,2013-10-07 14:48:00,
2013-10-07 10:54:00,59.1,56.9,28.91,SW,225,0.0,0.0,92,0.30,,,0.42,WSDL version 420,2013-10-07 14:54:00,
2013-10-07 10:59:00,59.2,57.3,28.91,SSW,210,0.0,0.0,93,0.30,,,0.42,WSDL version 420,2013-10-07 14:59:00,
2013-10-07 11:05:00,59.0,57.2,28.91,SSW,207,0.0,0.0,94,0.25,,,0.42,WSDL version 420,2013-10-07 15:05:00,
2013-10-07 11:11:00,59.0,57.4,-100.00,SSW,209,0.0,0.0,94,0.25,,,0.46,WSDL version 420,2013-10-07 15:11:00,
2013-10-07 11:17:00,59.0,57.4,28.91,SSW,203,0.0,0.0,94,0.25,,,0.50,WSDL version 420,2013-10-07 15:17:00,
2013-10-07 11:23:00,58.8,57.4,28.88,SSW,206,0.5,3.6,94,0.21,,,0.50,WSDL version 420,2013-10-07 15:23:00,
2013-10-07 11:28:00,58.5,57.2,28.88,SW,218,0.0,3.6,96,0.17,,,0.50,WSDL version 420,2013-10-07 15:28:00,
2013-10-07 11:35:00,58.5,57.2,-100.00,SSW,203,0.0,0.0,96,0.21,,,0.54,WSDL version 420,2013-10-07 15:35:00,
2013-10-07 11:40:00,58.3,57.0,28.91,SSW,203,0.0,0.0,96,0.17,,,0.54,WSDL version 420,2013-10-07 15:40:00,
2013-10-07 11:46:00,58.2,56.9,28.91,SSW,203,0.0,0.0,96,-99.99,,,-99.99,WSDL version 420,2013-10-07 15:46:00,
2013-10-07 11:52:00,58.3,57.3,-100.00,SSW,203,0.0,0.0,97,0.17,,,0.54,WSDL version 420,2013-10-07 15:52:00,
2013-10-07 12:01:00,58.1,57.2,28.91,SSW,203,0.0,0.0,97,0.12,,,0.54,WSDL version 420,2013-10-07 16:01:00,
2013-10-07 12:07:00,58.0,57.0,28.91,SSW,203,0.0,0.0,97,0.08,,,0.54,WSDL version 420,2013-10-07 16:07:00,
2013-10-07 12:12:00,57.7,56.8,-100.00,SSW,203,0.0,0.0,97,-99.99,,,-99.99,WSDL version 420,2013-10-07 16:12:00,
2013-10-07 12:20:00,57.6,56.6,28.88,SSW,203,0.0,0.0,97,0.08,,,0.58,WSDL version 420,2013-10-07 16:20:00,
2013-10-07 12:26:00,57.6,56.6,-100.00,SW,235,0.0,0.0,97,0.08,,,0.58,WSDL version 420,2013-10-07 16:26:00,
2013-10-07 12:31:00,57.6,56.9,28.91,WSW,248,0.0,0.0,98,0.04,,,0.58,WSDL version 420,2013-10-07 16:31:00,
2013-10-07 12:37:00,57.8,57.3,28.91,SSW,203,0.0,0.0,99,0.08,,,0.62,WSDL version 420,2013-10-07 16:37:00,
2013-10-07 12:43:00,57.9,57.6,28.91,SSW,203,0.0,0.0,99,0.08,,,0.62,WSDL version 420,2013-10-07 16:43:00,
2013-10-07 12:49:00,57.9,57.6,28.91,West,273,0.0,0.0,99,0.08,,,0.62,WSDL version 420,2013-10-07 16:49:00,
2013-10-07 12:55:00,57.8,57.2,28.91,SSW,203,0.0,0.0,98,0.08,,,0.62,WSDL version 420,2013-10-07 16:55:00,
2013-10-07 13:02:00,57.7,57.1,28.91,SSW,203,0.0,0.0,98,-99.99,,,-99.99,WSDL version 420,2013-10-07 17:02:00,
2013-10-07 13:07:00,57.6,56.9,-100.00,SSW,203,0.0,0.0,98,0.08,,,0.62,WSDL version 420,2013-10-07 17:07:00,
2013-10-07 13:13:00,57.6,56.9,-100.00,SW,225,0.0,0.0,98,0.04,,,0.62,WSDL version 420,2013-10-07 17:13:00,
2013-10-07 13:18:00,57.6,56.9,28.88,SSW,203,0.0,0.0,98,0.04,,,0.62,WSDL version 420,2013-10-07 17:18:00,
2013-10-07 13:24:00,57.6,56.9,28.91,SSW,207,0.0,0.0,98,0.08,,,0.66,WSDL version 420,2013-10-07 17:24:00,
2013-10-07 13:33:00,57.6,56.9,-100.00,SW,225,0.0,0.0,98,0.08,,,0.66,WSDL version 420,2013-10-07 17:33:00,
2013-10-07 13:39:00,57.6,57.0,28.91,ESE,113,0.0,0.0,99,0.04,,,0.66,WSDL version 420,2013-10-07 17:39:00,
2013-10-07 13:47:00,57.6,57.2,28.91,ESE,113,0.0,0.0,99,0.04,,,0.66,WSDL version 420,2013-10-07 17:47:00,
2013-10-07 13:57:00,57.7,57.4,-100.00,East,96,0.0,0.0,99,0.04,,,0.66,WSDL version 420,2013-10-07 17:57:00,
2013-10-07 14:04:00,57.9,57.6,-100.00,ENE,68,0.0,0.0,99,0.04,,,0.66,WSDL version 420,2013-10-07 18:04:00,
2013-10-07 14:11:00,58.1,57.8,-100.00,ENE,68,0.0,0.0,99,0.04,,,0.66,WSDL version 420,2013-10-07 18:11:00,
2013-10-07 14:17:00,58.2,58.2,28.91,East,90,0.0,0.0,100,0.04,,,0.66,WSDL version 420,2013-10-07 18:17:00,
2013-10-07 14:25:00,58.8,58.8,-100.00,East,87,0.0,0.0,100,0.00,,,0.66,WSDL version 420,2013-10-07 18:25:00,
2013-10-07 14:31:00,58.8,58.7,28.94,East,79,0.0,0.0,99,0.00,,,0.66,WSDL version 420,2013-10-07 18:31:00,
2013-10-07 14:37:00,58.8,58.5,28.94,NE,45,0.0,0.0,99,0.00,,,0.66,WSDL version 420,2013-10-07 18:37:00,
2013-10-07 14:43:00,58.6,58.0,-100.00,NNW,338,0.0,0.0,98,0.00,,,0.66,WSDL version 420,2013-10-07 18:43:00,
2013-10-07 14:49:00,58.6,57.5,28.97,SW,225,0.0,0.9,96,0.00,,,0.66,WSDL version 420,2013-10-07 18:49:00,
2013-10-07 14:59:00,59.7,57.8,-100.00,WSW,252,0.0,0.0,93,0.00,,,0.66,WSDL version 420,2013-10-07 18:59:00,
2013-10-07 15:05:00,59.9,56.7,-100.00,WNW,298,0.0,0.0,83,0.00,,,0.66,WSDL version 420,2013-10-07 19:05:00,
2013-10-07 15:14:00,59.2,52.9,-100.00,NW,311,0.0,2.2,80,0.00,,,0.66,WSDL version 420,2013-10-07 19:14:00,
2013-10-07 15:21:00,59.7,53.2,28.94,NW,304,0.0,0.0,77,-99.99,,,-99.99,WSDL version 420,2013-10-07 19:21:00,
2013-10-07 15:27:00,59.5,51.9,-100.00,NW,319,0.0,0.0,75,0.00,,,0.66,WSDL version 420,2013-10-07 19:27:00,
2013-10-07 15:39:00,59.5,46.9,28.97,SW,234,0.9,2.9,63,0.00,,,0.66,WSDL version 420,2013-10-07 19:39:00,
2013-10-07 15:46:00,59.7,48.5,-100.00,SSW,203,0.0,2.9,67,0.00,,,0.66,WSDL version 420,2013-10-07 19:46:00,
2013-10-07 15:51:00,59.7,48.7,-100.00,SW,234,0.0,0.9,66,0.00,,,0.66,WSDL version 420,2013-10-07 19:51:00,
2013-10-07 15:57:00,59.7,47.3,-100.00,WSW,248,0.0,0.0,64,0.00,,,0.66,WSDL version 420,2013-10-07 19:57:00,
2013-10-07 16:03:00,59.9,47.7,28.97,WNW,298,0.0,0.0,63,0.00,,,0.66,WSDL version 420,2013-10-07 20:03:00,
2013-10-07 16:09:00,60.1,46.9,28.97,SSW,207,0.0,2.5,61,0.00,,,0.66,WSDL version 420,2013-10-07 20:09:00,
2013-10-07 16:15:00,60.1,45.9,28.97,NW,323,0.0,0.0,59,0.00,,,0.66,WSDL version 420,2013-10-07 20:15:00,
2013-10-07 16:20:00,59.9,42.4,-100.00,NW,324,0.7,2.7,51,0.00,,,0.66,WSDL version 420,2013-10-07 20:20:00,
2013-10-07 16:29:00,59.3,42.4,-100.00,WSW,257,0.5,0.0,54,-99.99,,,-99.99,WSDL version 420,2013-10-07 20:29:00,
2013-10-07 16:35:00,59.2,42.9,29.00,NW,305,0.0,0.0,55,0.00,,,0.66,WSDL version 420,2013-10-07 20:35:00,
2013-10-07 16:41:00,59.5,42.7,29.00,NNW,338,0.0,0.0,54,0.00,,,0.66,WSDL version 420,2013-10-07 20:41:00,
2013-10-07 16:46:00,59.5,42.1,29.00,NW,315,0.9,2.2,51,0.00,,,0.66,WSDL version 420,2013-10-07 20:46:00,
2013-10-07 16:52:00,59.4,41.5,29.00,SW,230,0.0,2.2,52,0.00,,,0.66,WSDL version 420,2013-10-07 20:52:00,
2013-10-07 16:58:00,59.3,41.5,29.03,WNW,300,0.7,3.6,52,0.00,,,0.66,WSDL version 420,2013-10-07 20:58:00,
2013-10-07 17:03:00,59.2,39.8,29.03,NW,304,0.7,4.9,49,0.00,,,0.66,WSDL version 420,2013-10-07 21:03:00,
2013-10-07 17:11:00,58.7,39.4,-100.00,WSW,248,0.0,4.9,49,0.00,,,0.66,WSDL version 420,2013-10-07 21:11:00,
2013-10-07 17:20:00,58.6,39.0,-100.00,West,278,0.9,4.0,48,0.00,,,0.66,WSDL version 420,2013-10-07 21:20:00,
2013-10-07 17:50:00,57.6,38.0,-100.00,WSW,248,0.0,0.0,48,0.00,,,0.66,WSDL version 420,2013-10-07 21:50:00,
2013-10-07 17:56:00,57.3,38.0,29.03,NNW,329,0.0,3.1,48,0.00,,,0.66,WSDL version 420,2013-10-07 21:56:00,
2013-10-07 18:30:00,55.8,37.4,-100.00,SSW,207,0.0,0.0,50,0.00,,,0.66,WSDL version 420,2013-10-07 22:30:00,
2013-10-07 18:37:00,55.4,37.1,-100.00,WSW,248,0.0,0.0,50,0.00,,,0.66,WSDL version 420,2013-10-07 22:37:00,
2013-10-07 18:43:00,55.2,37.4,29.09,WSW,251,0.0,0.0,51,0.00,,,0.66,WSDL version 420,2013-10-07 22:43:00,
2013-10-07 18:49:00,55.0,37.3,29.09,West,264,0.0,0.0,51,0.00,,,0.66,WSDL version 420,2013-10-07 22:49:00,
2013-10-07 18:55:00,55.0,37.8,29.09,WNW,293,0.0,0.0,52,0.00,,,0.66,WSDL version 420,2013-10-07 22:55:00,
2013-10-07 19:11:00,54.7,37.7,29.09,West,259,0.0,0.0,52,0.00,,,0.66,WSDL version 420,2013-10-07 23:11:00,
2013-10-07 19:17:00,54.9,38.1,29.09,West,275,0.0,0.0,53,0.00,,,0.66,WSDL version 420,2013-10-07 23:17:00,
2013-10-07 19:28:00,55.0,38.2,29.06,West,259,0.0,0.0,53,0.00,,,0.66,WSDL version 420,2013-10-07 23:28:00,
2013-10-07 19:34:00,54.8,38.0,29.06,NW,304,0.0,1.3,53,-99.99,,,-99.99,WSDL version 420,2013-10-07 23:34:00,
2013-10-07 19:40:00,54.7,37.9,-100.00,NW,309,0.0,1.3,53,0.00,,,0.66,WSDL version 420,2013-10-07 23:40:00,
2013-10-07 19:46:00,54.4,37.6,-100.00,NNW,330,0.0,0.0,53,0.00,,,0.66,WSDL version 420,2013-10-07 23:46:00,
2013-10-07 19:52:00,54.0,37.2,-100.00,NW,311,0.0,0.0,53,0.00,,,0.66,WSDL version 420,2013-10-07 23:52:00,
2013-10-07 20:00:00,53.6,37.4,-100.00,SSE,153,0.7,0.0,54,0.00,,,0.66,WSDL version 420,2013-10-08 00:00:00,
2013-10-07 20:06:00,53.6,37.4,29.09,WSW,240,0.0,0.0,54,0.00,,,0.66,WSDL version 420,2013-10-08 00:06:00,
2013-10-07 20:12:00,53.4,37.7,29.12,SSW,212,0.0,0.0,55,-99.99,,,-99.99,WSDL version 420,2013-10-08 00:12:00,
2013-10-07 20:19:00,53.2,37.5,29.12,SSW,210,0.0,0.0,55,0.00,,,0.66,WSDL version 420,2013-10-08 00:19:00,
2013-10-07 20:27:00,53.1,37.8,29.12,SW,216,0.0,0.0,56,0.00,,,0.66,WSDL version 420,2013-10-08 00:27:00,
2013-10-07 20:33:00,53.0,37.7,29.12,WSW,248,0.0,0.0,56,-99.99,,,-99.99,WSDL version 420,2013-10-08 00:33:00,
2013-10-07 20:39:00,52.9,37.9,29.12,WSW,248,0.0,0.0,57,0.00,,,0.66,WSDL version 420,2013-10-08 00:39:00,
2013-10-07 20:47:00,52.9,38.1,29.12,NW,315,0.0,0.0,57,-99.99,,,-99.99,WSDL version 420,2013-10-08 00:47:00,
2013-10-07 20:53:00,52.9,38.1,29.12,NW,319,0.0,0.0,57,0.00,,,0.66,WSDL version 420,2013-10-08 00:53:00,
2013-10-07 21:00:00,52.9,38.5,-100.00,NW,315,0.0,0.0,58,-99.99,,,-99.99,WSDL version 420,2013-10-08 01:00:00,
2013-10-07 21:06:00,52.9,38.5,29.12,WNW,299,0.0,0.0,58,0.00,,,0.66,WSDL version 420,2013-10-08 01:06:00,
2013-10-07 21:44:00,53.1,40.0,29.12,WSW,248,0.0,0.0,61,-99.99,,,-99.99,WSDL version 420,2013-10-08 01:44:00,
2013-10-07 21:50:00,53.1,40.0,-100.00,West,263,0.0,0.0,61,0.00,,,0.66,WSDL version 420,2013-10-08 01:50:00,
2013-10-07 21:55:00,53.2,40.6,29.15,West,263,0.0,0.0,62,0.00,,,0.66,WSDL version 420,2013-10-08 01:55:00,
2013-10-07 22:01:00,53.4,40.7,29.15,NW,304,0.0,0.0,62,0.00,,,0.66,WSDL version 420,2013-10-08 02:01:00,
2013-10-07 22:07:00,53.8,41.1,29.15,North,360,0.0,3.6,62,-99.99,,,-99.99,WSDL version 420,2013-10-08 02:07:00,
2013-10-07 22:13:00,54.0,41.3,29.18,NW,326,0.0,0.0,62,0.00,,,0.66,WSDL version 420,2013-10-08 02:13:00,
2013-10-07 22:19:00,54.1,41.8,-100.00,WNW,298,0.3,4.9,63,0.00,,,0.66,WSDL version 420,2013-10-08 02:19:00,
2013-10-07 22:25:00,54.1,41.6,-100.00,North,360,0.0,4.9,63,0.00,,,0.66,WSDL version 420,2013-10-08 02:25:00,
2013-10-07 22:30:00,54.0,41.7,29.21,NNW,328,0.0,2.7,63,0.00,,,0.66,WSDL version 420,2013-10-08 02:30:00,
2013-10-07 22:36:00,53.7,41.9,29.21,NW,315,0.0,1.3,64,0.00,,,0.66,WSDL version 420,2013-10-08 02:36:00,
2013-10-07 22:42:00,53.5,41.8,29.21,WSW,248,0.0,0.0,65,0.00,,,0.66,WSDL version 420,2013-10-08 02:42:00,
2013-10-07 22:47:00,53.4,42.0,29.21,NW,320,0.0,2.9,65,0.00,,,0.66,WSDL version 420,2013-10-08 02:47:00,
2013-10-07 22:53:00,53.2,42.1,29.18,NW,319,0.0,2.9,66,0.00,,,0.66,WSDL version 420,2013-10-08 02:53:00,
2013-10-07 23:06:00,52.7,42.1,29.18,NW,319,0.0,1.1,67,0.00,,,0.66,WSDL version 420,2013-10-08 03:06:00,
2013-10-07 23:12:00,52.4,42.2,29.18,NW,311,0.0,0.0,68,0.00,,,0.66,WSDL version 420,2013-10-08 03:12:00,
2013-10-07 23:18:00,52.2,42.0,29.18,West,264,0.0,3.4,68,0.00,,,0.66,WSDL version 420,2013-10-08 03:18:00,
2013-10-07 23:23:00,52.0,42.0,29.21,West,259,0.0,3.4,69,0.00,,,0.66,WSDL version 420,2013-10-08 03:23:00,
2013-10-07 23:29:00,51.8,42.0,29.21,West,270,0.0,0.0,69,0.00,,,0.66,WSDL version 420,2013-10-08 03:29:00,
2013-10-07 23:35:00,51.6,42.1,-100.00,NW,315,0.0,0.0,70,0.00,,,0.66,WSDL version 420,2013-10-08 03:35:00,
2013-10-07 23:40:00,51.3,41.8,-100.00,NW,315,0.0,0.0,70,0.00,,,0.66,WSDL version 420,2013-10-08 03:40:00,
2013-10-07 23:47:00,51.1,42.0,-100.00,SW,216,0.0,0.0,71,0.00,,,0.66,WSDL version 420,2013-10-08 03:47:00,
2013-10-07 23:54:00,50.9,41.8,29.21,WSW,245,0.0,0.0,71,0.00,,,0.66,WSDL version 420,2013-10-08 03:54:00,